#timestamp,LO_Frequency,Hit,StdDev 
1508302815.8,286046997.9,N
1508302835.6,286046994.9,Y
1508302855.5,286046997.3,P
1508302875.3,286046999.2,N
1508302895.2,286046997.2,P
1508302915.9,286046996.9,Y
1508302935.7,286047001.1,P
1508302955.6,286047000.6,N
1508302975.4,286047000.9,N
1508302995.3,286047000.7,N
1508303015.1,286047001.2,N
1508303016.0,286047001.2,N
1508303035.8,286046999.9,N
1508303055.7,286046998.2,N
1508303075.5,286047001.0,N
1508303095.3,286046998.7,N
1508303115.2,286047000.6,N
1508303135.0,286047002.8,N
1508303135.9,286047002.8,N
1508303155.8,286047001.5,N
1508303175.6,286047000.5,N
1508303195.4,286046998.4,N
1508303215.3,286046998.8,N
1508303235.1,286047000.7,N
1508303255.9,286047000.1,N
1508303275.7,286047000.7,N
1508303295.5,286046998.7,N
1508303315.4,286046998.2,N
1508303335.2,286047000.7,N
1508303355.0,286047001.2,N
1508303355.9,286047001.2,N
1508303375.8,286047001.2,N
1508303395.6,286047000.8,N
1508303415.5,286046998.2,N
1508303435.3,286046998.3,N
1508303455.1,286046998.6,N
1508303475.9,286047000.9,N
1508303495.7,286047001.0,N
1508303515.5,286047001.0,N
1508303535.4,286047002.8,N
1508303555.2,286047000.1,N
1508303575.0,286047001.4,N
1508303576.0,286047001.4,N
1508303595.8,286047003.5,N
1508303615.6,286047003.0,N
1508303635.5,286047001.3,N
1508303655.3,286047002.4,N
1508303675.1,286047002.7,N
1508303695.9,286047002.0,N
1508303715.7,286047002.9,N
1508303735.6,286047003.4,N
1508303755.4,286047003.6,N
1508303775.2,286047004.4,N
1508303795.1,286047003.5,N
1508303796.0,286047003.5,N
1508303815.8,286047003.9,N
1508303835.6,286047004.3,N
1508303855.5,286047002.4,N
1508303875.3,286047000.2,N
1508303895.2,286047001.5,N
1508303915.9,286047003.3,N
1508303935.7,286047004.8,N
1508303955.6,286047005.7,Y
1508303975.4,286046999.7,P
1508303995.3,286047000.1,N
1508304015.1,286047000.1,N
1508304035.8,286047001.1,N
1508304055.7,286047000.0,N
1508304075.5,286047002.7,Y
1508304095.4,286047002.5,P
1508304115.2,286047002.7,N
1508304135.0,286047000.1,N
1508304135.9,286047000.1,N
1508304155.8,286047001.1,N
1508304175.6,286047002.3,N
1508304195.4,286047000.3,N
1508304215.3,286046998.5,N
1508304235.1,286047000.3,N
1508304255.9,286047000.9,N
1508304275.7,286047001.2,N
1508304295.5,286047000.2,N
1508304315.4,286047000.1,N
1508304335.2,286047002.4,N
1508304355.0,286047000.1,N
1508304355.9,286047000.1,N
1508304375.8,286047000.5,N
1508304395.6,286046999.7,N
1508304415.5,286047001.8,N
1508304435.3,286046999.7,N
1508304455.1,286047002.8,N
1508304475.9,286047000.0,N
1508304495.7,286046999.7,N
1508304515.5,286047002.4,N
1508304535.4,286047002.1,N
1508304555.2,286047002.7,N
1508304575.1,286046999.9,N
1508304576.0,286046999.9,N
1508304595.8,286047002.5,N
1508304615.6,286047002.1,N
1508304635.5,286047003.8,Y
1508304655.3,286047002.1,P
1508304675.2,286047001.7,N
1508304695.9,286047004.3,P
1508304715.7,286047001.4,N
1508304735.6,286047002.5,N
1508304755.4,286047002.7,N
1508304775.2,286047001.5,N
1508304795.1,286047000.0,N
1508304796.0,286047000.0,N
1508304815.8,286047000.3,N
1508304835.7,286046998.2,N
1508304855.5,286047001.0,N
1508304875.3,286047000.1,N
1508304895.2,286047000.0,N
1508304915.0,286047002.3,N
1508304915.9,286047002.3,N
1508304935.8,286047002.6,N
1508304955.6,286047002.7,N
1508304975.4,286047000.4,N
1508304995.3,286047000.3,N
1508305015.1,286047001.0,N
1508305035.8,286046998.5,N
1508305055.7,286047001.0,N
1508305075.5,286047004.1,N
1508305095.4,286047004.3,N
1508305115.2,286047003.2,N
1508305135.0,286047004.2,N
1508305135.9,286047004.2,N
1508305155.8,286047004.3,N
1508305175.6,286047001.4,N
1508305195.5,286047002.1,N
1508305215.3,286047002.5,N
1508305235.1,286047001.5,N
1508305255.9,286047002.0,N
1508305275.7,286047004.4,N
1508305295.5,286047003.5,N
1508305315.4,286047001.7,N
1508305335.2,286047003.1,N
1508305355.1,286047001.7,N
1508305356.0,286047001.7,N
1508305375.8,286047001.3,N
1508305395.6,286047003.9,N
1508305415.5,286047003.2,N
1508305435.3,286047003.6,N
1508305455.2,286047001.3,N
1508305475.9,286047005.4,Y
1508305495.7,286047004.2,P
1508305515.6,286047003.7,P
1508305535.4,286046999.7,N
1508305555.3,286047000.5,N
1508305575.1,286047000.6,N
1508305595.8,286046998.6,N
1508305615.7,286046998.5,N
1508305635.5,286046998.8,N
1508305655.4,286046998.9,N
1508305675.2,286046998.4,N
1508305695.0,286046999.8,N
1508305695.9,286046999.8,N
1508305715.8,286046998.2,N
1508305735.6,286047000.1,N
1508305755.5,286047000.2,N
1508305775.3,286047000.5,N
1508305795.1,286046999.7,N
1508305815.9,286047000.9,N
1508305835.7,286047001.0,N
1508305855.5,286046999.7,N
1508305875.4,286047000.3,N
1508305895.2,286047000.7,N
1508305915.1,286047000.4,N
1508305916.0,286047000.4,N
1508305935.8,286047002.2,N
1508305955.6,286047003.9,N
1508305975.5,286047000.1,N
1508305995.3,286047001.3,N
1508306015.1,286047000.1,N
1508306035.9,286047000.3,N
1508306055.7,286047002.1,N
1508306075.6,286046999.7,N
1508306095.4,286047002.6,N
1508306115.2,286047003.5,N
1508306135.1,286047004.0,N
1508306136.0,286047004.0,N
1508306155.8,286047001.3,N
1508306175.7,286047002.0,N
1508306195.5,286047003.4,N
1508306215.3,286047004.4,N
1508306235.2,286047002.5,N
1508306255.0,286047002.0,N
1508306255.9,286047002.0,N
1508306275.7,286047002.3,N
1508306295.6,286047002.3,N
1508306315.4,286047002.8,N
1508306335.3,286047002.7,N
1508306355.1,286047000.7,N
1508306356.0,286047000.7,N
1508306375.8,286047000.1,N
1508306395.7,286047002.8,N
